    Orbital elements:
    2017 NM6                                            PHA, Earth MOID = 0.0068 AU
    Epoch 2020 May 31.0 TT = JDT 2459000.5                  Veres
    M 290.19724              (2000.0)            P               Q
    n   0.27238402     Peri.  349.44110     +0.23559366     +0.58559330
    a   2.3569388      Node   289.81061     -0.82072638     -0.30753497
    e   0.5685855      Incl.   55.52803     -0.52048424     +0.75000182
    P   3.62           H   19.0           G   0.15           U   3
    Residuals in seconds of arc
    170714 F51  0.2-  0.2+    170716 H21  0.0   0.1+    170721 T05  0.0   0.4-
    170714 F51  0.1-  0.2+    170716 H21  0.1+  0.0     170722 H21  0.1+  0.1+
    170714 F51  0.0   0.2+    170716 H21  0.0   0.0     170722 H21  0.1+  0.1+
    170714 J95  0.2+  0.0     170716 H21  0.1+  0.0     170722 H21  0.1+  0.0
    170714 J95  0.3+  0.2+    170716 H21  0.1+  0.0     170723 H45  0.1-  0.2+
    170714 J95  1.0+  0.2+    170716 H21  0.0   0.0     170723 H45  0.5-  0.1+
    170714 J95  0.8+  0.7-    170716 H21  0.0   0.0     170723 H45  0.2-  0.1-
    170714 I89  0.2-  0.2+    170716 P93  0.1-  0.3-    170723 H45  0.2-  0.1-
    170714 I89  0.2-  0.2+    170716 P93  0.0   0.3-    170723 H45  0.2-  0.0
    170714 I89  0.5-  0.2+    170716 P93  0.2-  0.3-    170723 H45  0.2-  0.0
    170714 I89  0.5-  0.3+    170716 P93  0.0   0.5-    170723 H45  0.1-  0.1-
    170714 I89  0.2-  0.0     170716 107  0.2-  0.6+    170723 H45  0.2-  0.0
    170714 I89  0.3-  0.2+    170716 L04  0.0   0.1-    170723 T08  0.0   0.1-
    170714 I89  0.4-  0.1+    170716 107  0.0   0.0     170723 T08  0.4-  0.2-
    170714 C77  0.2-  0.1-    170716 L04  0.0   0.1+    170723 T08  0.7+  0.8+
    170715 C77  0.2-  0.2+    170716 107  0.1-  0.7+    170723 T08  0.0   0.3-
    170715 C77  0.2-  0.1+    170716 587  0.1+  0.4-    170725 H21  0.2+  0.2+
    170715 C77  0.2-  0.1+    170716 L04  0.1-  0.0     170725 H21  0.1+  0.1+
    170715 104  0.3+  0.1+    170716 587  0.2-  0.1+    170725 H21  0.1+  0.0
    170715 104  0.1+  0.0     170716 587  0.1+  0.2+    170725 H21  0.1+  0.1+
    170715 104  0.1+  0.0     170716 I93  0.1-  0.2-    170725 H21  0.0   0.1+
    170715 104  0.1+  0.1-    170716 I93  0.2-  0.0     170725 H45  0.2-  0.3-
    170715 I89  0.3-  0.3-    170716 I93  0.1-  0.1-    170725 H45  0.1-  0.3-
    170715 I89  0.4-  0.4-    170716 104  0.1+  0.0     170725 H45  0.1+  0.3-
    170715 I89  0.2-  0.4-    170716 104  0.2+  0.1+    170725 H45  0.3-  0.1+
    170715 W25  0.5+  0.0     170716 104  0.2+  0.1-    170725 H45  0.1-  0.4-
    170715 W25  0.0   0.1+    170716 K65  0.1+  0.0     170725 H45  0.2-  0.1-
    170715 H06  0.1-  0.1-    170716 K65  0.0   0.0     170725 T05  0.4+  0.3+
    170715 G40  0.1+  0.1-    170716 K65  0.0   0.1+    170725 T05  0.3+  0.3+
    170715 H06  0.0   0.1-    170717 U69  0.4-  0.2+    170725 T05  0.1+  0.6+
    170715 G40  0.2+  0.2-    170717 U69  0.4-  0.0     170725 T05  0.5-  0.1+
    170715 H06  0.0   0.0     170717 U69  0.3-  0.1+    170726 I15  0.1+  0.4-
    170715 G40  0.1+  0.0     170717 H21  0.1+  0.0     170726 I15  1.3+  0.3+
    170715 H06  0.0   0.1-    170717 H21  0.1+  0.0     170726 I15  0.6+  0.1+
    170715 734  0.4-  0.2-    170717 H21  0.1+  0.0     170726 L04  0.0   0.1+
    170715 734  0.4-  0.1-    170717 H21  0.0   0.0     170726 L04  0.0   0.0
    170715 734  0.4-  0.3-    170717 H21  0.1+  0.1-    170728 203  0.5+  0.1-
    170715 734  0.2-  0.1-    170717 H21  0.1+  0.0     170728 203  0.2+  0.1-
    170715 U69  0.5-  0.3+    170717 H21  0.1+  0.1-    170730 H21  0.1-  0.1-
    170715 U69  0.4-  0.2+    170717 H21  0.0   0.0     170730 H21  0.0   0.0
    170715 U69  0.3-  0.2+    170717 H21  0.1+  0.0     170730 H21  0.0   0.1-
    170715 H21  0.0   0.0     170717 H21  0.1+  0.0     170730 H45  0.0   0.0
    170715 H21  0.0   0.0     170717 T05  0.1-  0.1-    170730 H45  0.1-  0.0
    170715 H21  0.1+  0.1-    170717 T05  0.1-  0.0     170730 H45  0.1+  0.0
    170715 H21  0.1+  0.1-    170717 T05  0.1+  0.1-    170730 H45  0.0   0.1-
    170715 H21  0.2-  0.1-    170717 T05  0.0   0.2+    170730 H45  0.0   0.0
    170715 H21  0.1+  0.0     170717 T05  0.9+  0.5-    170730 H45  0.2-  0.0
    170715 H21  0.1+  0.1-    170717 P93  0.4+  0.3-    170731 H21  0.1+  0.1+
    170715 H21  0.0   0.1-    170717 P93  0.1+  0.3-    170731 H21  0.1+  0.1-
    170715 H21  0.1+  0.1-    170717 P93  0.3+  0.3-    170731 H21  0.1+  0.0
    170715 H21  0.2+  0.0     170718 H45  0.2+  0.1-    170731 695  0.1-  0.1-
    170715 H21  0.1+  0.1+    170718 H45  0.1+  0.0     170731 695  0.0   0.0
    170715 H21  0.1+  0.0     170718 H45  0.1+  0.1+    170731 695  0.1+  0.0
    170715 H21  0.1+  0.0     170718 H45  0.3+  0.1-    170731 695  0.0   0.0
    170715 H21  0.1+  0.0     170718 H45  0.0   0.2-    170731 695  0.0   0.0
    170715 H21  0.1+  0.0     170718 H45  0.1-  0.1-    170731 695  0.1-  0.1-
    170715 U69  0.4+  0.1-    170718 H45  0.0   0.1-    170802 F51  0.0   0.0
    170715 U69  0.2+  0.1+    170718 H45  0.1+  0.1+    170802 F51  0.0   0.0
    170715 U69  0.2-  0.1+    170718 H45  0.2-  0.1-    170802 F51  0.0   0.0
    170715 568  0.0   0.1-    170718 H45  0.3+  0.2-    170802 F51  0.0   0.0
    170715 568  0.0   0.2-    170718 H21  0.1+  0.1-    170805 H21  0.2-  0.0
    170715 568  0.0   0.2-    170718 H21  0.1+  0.0     170805 H21  0.0   0.3-
    170715 F51  0.1-  0.1+    170718 H21  0.1+  0.0     170805 H21  0.1+  0.1+
    170715 F51  0.2-  0.2+    170718 H21  0.1+  0.2-    170805 H21  0.3-  0.1+
    170715 F51  0.0   0.1+    170718 H21  0.1+  0.1-    170813 H21  0.0   0.3-
    170715 T08  0.1+  0.2+    170718 H21  0.1+  0.0     170813 H21  0.1+  0.3-
    170715 T08  0.1-  0.3+    170718 H21  0.1+  0.0     170813 H21  0.1+  0.1-
    170715 T08  0.1+  0.2+    170718 A48 (1.7+  0.1+)   170814 H21  0.1-  0.1-
    170715 T08  0.1+  0.2-    170718 A48 (1.9+  0.1+)   170814 H21  0.1-  0.3-
    170715 P93  0.1+  0.1-    170718 A48 (1.8+  0.3+)   170814 H21  0.3-  0.6-
    170715 P93  0.3+  0.2-    170718 A48 (2.1+  0.4+)   170815 H21  0.2-  0.1-
    170715 P93  0.2-  0.3-    170718 107  0.5+  0.4-    170815 H21  0.1-  0.2+
    170715 P93  0.2+  0.6-    170718 107  0.3+  0.2+    170815 H21  0.2-  0.1-
    170715 107  0.4-  0.2+    170718 107  0.1-  0.2-    170816 H21  0.2+  0.2-
    170715 107  0.0   0.2+    170718 K14  0.0   0.0     170816 H21  0.0   0.1+
    170715 107  0.2-  0.0     170718 K14  0.0   0.1-    170816 H21  0.2-  0.1+
    170715 B49  0.5-  0.1+    170718 G34  0.4+  0.3+    170820 H21  0.3-  0.1+
    170715 B49  0.5-  0.1+    170718 G34  0.2+  0.2+    170820 H21  0.2-  0.4+
    170715 B49  0.3-  0.1-    170718 G34  0.2+  0.0     170820 H21  0.3-  0.0
    170715 B49  0.3-  0.1-    170719 W71  0.1-  0.9-    170822 H21  0.1+  0.2+
    170715 595  0.2+  0.0     170719 W71  0.8-  0.4-    170822 H21  0.0   0.1+
    170715 595  0.3-  0.2+    170719 W71  0.8+  0.2-    170822 H21  0.2-  0.0
    170715 B49  0.3-  0.2-    170719 W71  0.6-  0.4-    170823 H21  0.1-  0.2+
    170715 595  0.0   0.0     170719 T08  0.2+  0.3+    170823 H21  0.2-  0.4+
    170715 595  0.3-  0.2+    170719 T08  0.1+  0.1+    170823 H21  0.0   0.4+
    170715 Z80  0.1+  0.3-    170719 T08  0.2+  0.1-    170824 H21  0.2-  0.1+
    170715 Z80  0.0   0.0     170719 T08  0.8+  0.1+    170824 H21  0.2-  0.2+
    170715 Z80  0.1+  0.2-    170719 K14  0.0   0.2-    170824 H21  0.3-  0.2+
    170715 Z80  0.0   0.2-    170719 K14  0.1+  0.1+    170825 H21  0.3+  0.2-
    170715 Z80  0.0   0.1+    170719 K14  0.4+  0.2+    170825 H21  0.1+  0.1-
    170715 Z80  0.1-  0.2+    170719 K14  0.0   0.2+    170825 H21  0.4+  0.3-
    170715 Z80  0.1+  0.3-    170719 K14  0.2+  0.1+    170826 H21  0.5+  0.1+
    170715 204  0.8-  0.0     170720 H45  0.3-  0.1-    170826 H21  0.1-  0.1-
    170715 204  0.8-  0.1+    170720 H45  0.1-  0.1-    171001 695  0.1+  0.2+
    170715 204  0.7-  0.0     170720 H45  0.4-  0.2-    171001 695  0.1-  0.2+
    170715 204  0.8-  0.1+    170720 H45  0.2-  0.0     171001 695  0.0   0.1+
    170716 204  0.8-  0.0     170720 H45  0.4-  0.1-    171113 291  0.1-  0.3+
    170716 I89  0.1-  0.1+    170720 H45  0.1-  0.2-    171113 291  0.7+  0.4+
    170716 I89  0.0   0.0     170720 H45  0.1-  0.4-    190103 T12  0.0   0.0
    170716 I89  0.2-  0.0     170720 H45  0.6-  0.1-    190103 T12  0.0   0.0
    170716 I89  0.0   0.3+    170721 J69  0.1-  0.2-    190108 T12  0.0   0.0
    170716 W25  0.1+  0.1+    170721 J69  0.2-  0.0     200125 T12  0.0   0.0
    170716 W25  0.1+  0.2+    170721 J69  0.2-  0.0     200125 T12  0.0   0.0
    170716 V03  0.1-  0.1-    170721 T05  0.4+  0.1+
    170716 V03  0.0   0.7+    170721 T05  0.0   0.1-				
    				
    Ephemeris:
    2017 NM6                 a,e,i = 2.36, 0.57, 56                  q = 1.0168
    Date    TT    R. A. (2000) Decl.     Delta      r    Elong.  Phase     V
    2020 02 05    07 28 05.3 +00 13 46   2.2774  3.1693   149.9     9.0    23.9
    ...
    2020 02 20    07 10 07.6 -00 11 09   2.3440  3.1111   133.8    13.3    24.1
    ...
    2020 02 28    07 02 45.1 -00 15 30   2.4019  3.0787   125.0    15.3    24.2
    ...
    2020 03 05    06 58 23.0 -00 16 01   2.4527  3.0538   118.6    16.6    24.3
    2020 03 06    06 57 45.3 -00 15 56   2.4616  3.0496   117.5    16.8    24.3
    2020 03 07    06 57 09.2 -00 15 48   2.4707  3.0454   116.5    17.0    24.3
    ...
    2020 03 13    06 54 08.4 -00 14 25   2.5276  3.0197   110.3    18.0    24.3
    ...
    2020 03 21    06 51 39.7 -00 11 36   2.6077  2.9846   102.4    19.0    24.4
    ...
    2020 04 05    06 51 26.5 -00 07 55   2.7620  2.9162    88.7    20.1    24.5
    
    A. U. Tomatic                (C) Copyright 2020 MPC           M.P.E.C. 2020-E22
    


    Read MPEC 2020-E21 Read MPEC 2020-E23


    MPEC number:

    Enter an MPEC number in one of the following forms:

